Regional Weather Roundup
Issued by NWS

Home | Current Version | Previous Version | Graphics & Text | Print | Product List | Glossary On
Versions: 1 2 3 4 5 6 7 8 9 10 11 12 13 14 15 16 17 18 19 20 21 22 23 24 25 26 27 28 29 30 31 32 33 34 35 36 37 38 39 40 41 42 43 44 45 46 47 48 49 50
000
ASUS43 KLMK 261110
RWRKY
NATIONAL WEATHER SERVICE LOUISVILLE KY
600 AM EST WED NOV 26 2014

NOTE "FAIR" INDICATES FEW OR NO CLOUDS BELOW 12,000 FEET
WITH NO SIGNIFICANT WEATHER AND/OR OBSTRUCTIONS TO VISIBILITY.

KYZ001>023-026-027-061>063-070>075-261200-
WESTERN AND SOUTH CENTRAL KENTUCKY

CITY           SKY/WX    TMP DP  RH WIND       PRES   REMARKS
PADUCAH        CLEAR     22  20  92 E3        30.12S
HENDERSON      PTCLDY    21  19  93 CALM      30.14F
OWENSBORO      FAIR      24  22  92 MISG      30.15S
HOPKINSVILLE   CLEAR     27  26  99 CALM      30.13F
BOWLING GREEN  CLEAR     29  25  85 CALM      30.13R
GLASGOW        CLEAR     25  25 100 CALM      30.11R FOG
$$

KYZ024-025-028>034-038-045-046-053-261200-
NORTH CENTRAL KENTUCKY

CITY           SKY/WX    TMP DP  RH WIND       PRES   REMARKS
LOUISVILLE/SDF PTCLDY    28  24  85 N7        30.12R WCI  21
LOUISVILLE/LOU CLEAR     27  24  89 N3        30.12S
FORT KNOX      CLEAR     23  21  94 W2        30.09S
$$

KYZ035>037-039>044-047>052-055>060-089>105-261200-
NORTHEAST KENTUCKY

CITY           SKY/WX    TMP DP  RH WIND       PRES   REMARKS
LEXINGTON      PTCLDY    28  26  92 NW6       30.07R WCI  22
COVINGTON      CLEAR     28  23  81 N6        30.10R WCI  22
FRANKFORT      CLEAR     26  24  92 NW3       30.07F FOG
$$

KYZ054-064>069-076>088-106>120-261200-
SOUTHEAST KENTUCKY

CITY           SKY/WX    TMP DP  RH WIND       PRES   REMARKS
JACKSON        CLOUDY    35  27  72 NW7       30.02R WCI  29
LONDON         CLOUDY    37  28  70 NW5       30.04R WCI  33
SOMERSET       CLOUDY    34  28  80 CALM      30.07F
MIDDLESBORO    NOT AVBL
MONTICELLO     CLOUDY    35  30  82 CALM      30.08S
$$



USA.gov is the U.S. government's official web portal to all federal, state and local government web resources and services.